Location: Chena
(64.8152°N, 147.9227°W)
Time: 19:44:27
(UTC+00:00)

Tiros 1 - Visible Passes

Search period start: 04 March 2021 00:00
Search period end: 14 March 2021 00:00
Orbit: 630 x 664 km, 48.4° (Epoch: 03 March)

Date Brightness Start Highest point End Pass type
(mag) Time Alt. Az. Time Alt. Az. Time Alt. Az.
04 Mar 9.6 15:40:20 10° SSW 15:41:41 11° S 15:43:03 10° SSE visible
05 Mar 9.6 14:25:46 10° S 14:26:19 10° S 14:26:54 10° SSE visible
06 Mar 9.5 14:50:13 10° SSW 14:51:34 11° S 14:52:55 10° SSE visible
07 Mar 9.5 13:36:08 10° SSE 13:36:12 10° SSE 13:36:17 10° SSE visible
07 Mar 9.5 15:15:48 10° SSW 15:16:49 11° S 15:17:49 10° S visible
08 Mar 9.4 14:00:45 11° S 14:01:27 11° S 14:02:46 10° SSE visible
09 Mar 9.4 14:25:36 10° SSW 14:26:41 11° S 14:27:47 10° S visible
11 Mar 9.5 13:37:24 10° S 13:37:24 10° S 13:37:43 10° S visible
